| time (UTC) | temp F | wind direction | speed knots | gust knots | rain 1hr in | rain 24hr in | rain mn in | humidity % | barometer mb |
| 20260503212218 | 0 | 0.0 | 0.9 | 0.00 | 0.00 | 0.00 | 1010.7 | ||
| 20260503211045 | 0 | 0.0 | 0.9 | 0.00 | 0.00 | 0.00 | 1010.6 | ||
| 20260503210016 | 0 | 0.0 | 0.0 | 0.00 | 0.00 | 0.00 | 1010.6 | ||
| 20260503204805 | 0 | 0.0 | 0.9 | 0.00 | 0.00 | 0.00 | 1010.8 | ||
| 20260503203736 | 0 | 0.0 | 0.9 | 0.00 | 0.00 | 0.00 | 1010.8 | ||
| 20260503202706 | 0 | 0.0 | 3.5 | 0.00 | 0.00 | 0.00 | 1010.6 | ||
| 20260503201636 | 0 | 0.0 | 2.6 | 0.00 | 0.00 | 0.00 | 1010.9 | ||
| 20260503200606 | 0 | 0.9 | 2.6 | 0.00 | 0.00 | 0.00 | 1010.6 | ||
| 20260503195536 | 0 | 0.0 | 0.9 | 0.00 | 0.00 | 0.00 | 1010.7 | ||
| 20260503194506 | 0 | 0.0 | 1.7 | 0.00 | 0.00 | 0.00 | 1010.5 | ||
| 20260503193437 | 0 | 0.9 | 0.9 | 0.00 | 0.00 | 0.00 | 1010.4 | ||
| 20260503192404 | 0 | 0.9 | 3.5 | 0.00 | 0.00 | 0.00 | 1010.3 | ||
| 20260503191335 | 0 | 0.9 | 3.5 | 0.00 | 0.00 | 0.00 | 1010.2 | ||
| 20260503190306 | 0 | 1.7 | 5.2 | 0.00 | 0.00 | 0.00 | 1010.0 | ||
| 20260503185237 | 0 | 2.6 | 4.3 | 0.00 | 0.00 | 0.00 | 1009.9 | ||
| 20260503184207 | 0 | 3.5 | 7.0 | 0.00 | 0.00 | 0.00 | 1010.0 | ||
| 20260503183128 | 0 | 3.5 | 6.1 | 0.00 | 0.00 | 0.00 | 1009.9 | ||
| 20260503182059 | 0 | 0.9 | 3.5 | 0.00 | 0.00 | 0.00 | 1010.0 | ||
| 20260503181029 | 0 | 0.0 | 4.3 | 0.00 | 0.00 | 0.00 | 1010.1 | ||
| 20260503175959 | 0 | 1.7 | 2.6 | 0.00 | 0.00 | 0.00 | 1010.1 | ||
| 20260503174930 | 0 | 0.9 | 2.6 | 0.00 | 0.00 | 0.00 | 1010.1 | ||
| 20260503173900 | 0 | 1.7 | 5.2 | 0.00 | 0.00 | 0.00 | 1010.1 | ||
| 20260503172830 | 0 | 0.9 | 3.5 | 0.00 | 0.00 | 0.00 | 1010.2 | ||
| 20260503171800 | 0 | 0.0 | 4.3 | 0.00 | 0.00 | 0.00 | 1010.3 | ||
| 20260503170726 | 0 | 0.9 | 6.1 | 0.00 | 0.00 | 0.00 | 1010.3 | ||
| 20260503150129 | 0 | 4.3 | 9.6 | 0.00 | 0.00 | 0.00 | 1010.8 | ||
| 20260503130555 | 0 | 4.3 | 7.8 | 0.00 | 0.00 | 0.00 | 1011.8 | ||
| 20260503090416 | 0 | 1.7 | 3.5 | 0.00 | 0.00 | 0.00 | 1012.9 | ||
| 20260503081143 | 0 | 3.5 | 5.2 | 0.00 | 0.00 | 0.00 | 1012.9 | ||
| 20260503080111 | 0 | 1.7 | 2.6 | 0.00 | 0.00 | 0.00 | 1012.9 | ||
| 20260503072942 | 0 | 3.5 | 5.2 | 0.00 | 0.00 | 0.00 | 1012.4 | ||
| 20260503071912 | 0 | 0.0 | 0.9 | 0.00 | 0.00 | 0.00 | 1012.6 | ||
| 20260503070842 | 0 | 0.0 | 0.9 | 0.00 | 0.00 | 0.00 | 1012.6 | ||
| 20260503054435 | 0 | 0.0 | 0.0 | 0.00 | 0.00 | 0.00 | 1012.5 | ||
| 20260503053403 | 0 | 0.0 | 0.0 | 0.00 | 0.00 | 0.00 | 1012.5 | ||
| 20260503052334 | 0 | 0.0 | 0.9 | 0.00 | 0.00 | 0.00 | 1012.4 | ||
| 20260503051304 | 0 | 0.0 | 0.9 | 0.00 | 0.00 | 0.00 | 1012.4 | ||
| 20260503050235 | 0 | 0.0 | 0.9 | 0.00 | 0.00 | 0.00 | 1012.4 | ||
| 20260503045205 | 0 | 0.0 | 0.9 | 0.00 | 0.00 | 0.00 | 1012.4 | ||
| 20260503044131 | 0 | 0.0 | 0.9 | 0.00 | 0.00 | 0.00 | 1012.4 | ||
| 20260503043102 | 0 | 0.0 | 0.0 | 0.00 | 0.00 | 0.00 | 1012.4 | ||
| 20260503041723 | 0 | 0.0 | 0.0 | 0.00 | 0.00 | 0.00 | 1012.3 | ||
| 20260503040654 | 0 | 0.0 | 0.9 | 0.00 | 0.00 | 0.00 | 1012.3 | ||
| 20260503035626 | 0 | 0.0 | 0.0 | 0.00 | 0.00 | 0.00 | 1012.4 | ||
| 20260503034557 | 0 | 0.0 | 0.0 | 0.00 | 0.00 | 0.00 | 1012.4 | ||
| 20260503033528 | 0 | 0.0 | 0.0 | 0.00 | 0.00 | 0.00 | 1012.4 | ||
| 20260503032458 | 0 | 0.0 | 0.9 | 0.00 | 0.00 | 0.00 | 1012.3 | ||
| 20260503031426 | 0 | 0.0 | 0.0 | 0.00 | 0.00 | 0.00 | 1012.4 | ||
| 20260503030357 | 0 | 0.0 | 0.0 | 0.00 | 0.00 | 0.00 | 1012.5 | ||
| 20260503025325 | 0 | 0.0 | 0.9 | 0.00 | 0.00 | 0.00 | 1012.4 | ||
| 20260503024257 | 0 | 0.0 | 0.0 | 0.00 | 0.00 | 0.00 | 1012.5 | ||
| 20260503023217 | 0 | 0.0 | 0.9 | 0.00 | 0.00 | 0.00 | 1012.6 | ||
| 20260503022147 | 0 | 0.0 | 0.0 | 0.00 | 0.00 | 0.00 | 1012.6 | ||
| 20260503021117 | 0 | 0.0 | 0.9 | 0.00 | 0.00 | 0.00 | 1012.5 | ||
| 20260503015943 | 0 | 0.0 | 0.0 | 0.00 | 0.00 | 0.00 | 1012.6 | ||
| 20260503014915 | 0 | 0.0 | 0.9 | 0.00 | 0.00 | 0.00 | 1012.7 | ||
| 20260503013742 | 0 | 0.0 | 0.0 | 0.00 | 0.00 | 0.00 | 1012.7 | ||
| 20260503012712 | 0 | 0.0 | 0.9 | 0.00 | 0.00 | 0.00 | 1012.7 | ||
| 20260503011642 | 0 | 0.9 | 0.9 | 0.00 | 0.00 | 0.00 | 1012.8 | ||
| 20260503010613 | 0 | 0.0 | 0.0 | 0.00 | 0.00 | 0.00 | 1012.7 | ||
| 20260503005132 | 0 | 0.0 | 0.9 | 0.00 | 0.00 | 0.00 | 1012.6 | ||
| 20260503004103 | 0 | 0.9 | 0.9 | 0.00 | 0.00 | 0.00 | 1012.8 | ||
| 20260503003034 | 0 | 0.0 | 0.9 | 0.00 | 0.00 | 0.00 | 1012.9 | ||
| 20260503002005 | 0 | 0.0 | 0.0 | 0.00 | 0.00 | 0.00 | 1013.2 | ||
| 20260503000928 | 0 | 0.0 | 0.9 | 0.00 | 0.00 | 0.00 | 1013.2 | ||
| 20260502235857 | 0 | 0.0 | 0.9 | 0.00 | 0.00 | 0.00 | 1013.2 | ||
| 20260502234829 | 0 | 0.0 | 0.9 | 0.00 | 0.00 | 0.00 | 1013.1 | ||
| 20260502233757 | 0 | 0.0 | 0.0 | 0.00 | 0.00 | 0.00 | 1013.2 | ||
| 20260502232625 | 0 | 0.0 | 0.0 | 0.00 | 0.00 | 0.00 | 1013.3 | ||
| 20260502231556 | 0 | 0.0 | 0.9 | 0.00 | 0.00 | 0.00 | 1013.4 | ||
| 20260502230527 | 0 | 0.0 | 0.9 | 0.00 | 0.00 | 0.00 | 1013.5 | ||
| 20260502225457 | 0 | 0.0 | 0.9 | 0.00 | 0.00 | 0.00 | 1013.6 | ||
| 20260502224428 | 0 | 0.0 | 0.0 | 0.00 | 0.00 | 0.00 | 1013.6 | ||
| 20260502223355 | 0 | 0.0 | 0.0 | 0.00 | 0.00 | 0.00 | 1013.6 | ||
| 20260502222326 | 0 | 0.0 | 0.9 | 0.00 | 0.00 | 0.00 | 1013.6 | ||
| 20260502221250 | 0 | 0.0 | 0.9 | 0.00 | 0.00 | 0.00 | 1013.7 | ||
| 20260502220218 | 0 | 0.0 | 0.0 | 0.00 | 0.00 | 0.00 | 1013.7 | ||
| 20260502215147 | 0 | 0.0 | 0.0 | 0.00 | 0.00 | 0.00 | 1013.7 | ||
| 20260502214115 | 0 | 0.0 | 0.0 | 0.00 | 0.00 | 0.00 | 1013.7 | ||
| 20260502213042 | 0 | 0.0 | 0.0 | 0.00 | 0.00 | 0.00 | 1013.8 |